Austin, TX

9:52 PM CST on February 24, 2017 (GMT -0600)
Austin Bergstrom International

Weather History for KAUS - February, 2012

Change the Weather History Date:

Sunday, February 5, 2012

  Actual Average Record
Temperature  
Mean Temperature 44 °F 50 °F  
Max Temperature 50 °F 63 °F 83 °F (1943)
Min Temperature 38 °F 38 °F 17 °F (2011)
Degree Days  
Heating Degree Days 21 15  
Month to date heating degree days 28 75  
Since 1 July heating degree days 1107 1317  
Cooling Degree Days 0 0  
Month to date cooling degree days 9 0  
Year to date cooling degree days 12 5  
Moisture  
Dew Point 37 °F    
Average Humidity 73    
Maximum Humidity 85    
Minimum Humidity 61    
Precipitation  
Precipitation 0.06 in 0.08 in 2.21 in (1961)
Month to date precipitation 1.81 0.36  
Year to date precipitation 9.11 2.56  
Snow  
Snow 0.00 in - - ()
Month to date snowfall 0.0  
Since 1 July snowfall 0.0  
Snow Depth 0.00 in    
Sea Level Pressure  
Sea Level Pressure 30.33 in    
Wind  
Wind Speed 14 mph (North)    
Max Wind Speed 29 mph    
Max Gust Speed 35 mph    
Visibility 10 miles    
Events Rain    
T = Trace of Precipitation, MM = Missing Value Source: NWS Daily Summary

Daily Weather History Graph

Daily Weather History Graph

Search for Another Location

Airport or City:

Trip Planner

Search our weather history database for the weather conditions in past years. The results will help you decide how hot, cold, wet, or windy it might be!

Date:

Astronomy

Feb. 05, 2012 Rise Set
Actual Time 7:19 AM CST 6:10 PM CST
Civil Twilight 6:54 AM CST 6:35 PM CST
Nautical Twilight 6:25 AM CST 7:04 PM CST
Astronomical Twilight 5:57 AM CST 7:32 PM CST
Moon 4:15 PM CST (2/5) 5:24 AM CST (2/5)
Length of Visible Light 11h 41m
Length of Day
10h 51m
Waxing Gibbous, 95% of the Moon is Illuminated
Feb 5
Waxing Gibbous
Feb 7
Full
Feb 14
Last Quarter
Feb 21
New
Feb 29
First Quarter

Hourly Weather History & Observations

Time (CST) Temp. Windchill Dew Point Humidity Pressure Visibility Wind Dir Wind Speed Gust Speed Precip Events Conditions
12:53 AM 50.0 °F - 37.0 °F 61% 30.29 in 10.0 mi North 20.7 mph - N/A   Overcast
1:53 AM 48.0 °F - 36.0 °F 63% 30.28 in 10.0 mi North 21.9 mph 28.8 mph N/A   Overcast
2:53 AM 46.9 °F - 36.0 °F 66% 30.27 in 10.0 mi North 19.6 mph 25.3 mph N/A   Overcast
3:53 AM 46.0 °F 38.0 °F 35.1 °F 66% 30.27 in 10.0 mi North 21.9 mph 28.8 mph N/A   Overcast
4:53 AM 45.0 °F 37.4 °F 35.1 °F 68% 30.29 in 10.0 mi North 18.4 mph - N/A   Overcast
5:53 AM 45.0 °F 36.9 °F 34.0 °F 65% 30.31 in 10.0 mi North 20.7 mph 27.6 mph N/A   Mostly Cloudy
6:53 AM 45.0 °F 37.9 °F 35.1 °F 68% 30.35 in 10.0 mi North 16.1 mph - N/A   Overcast
7:53 AM 44.1 °F 36.2 °F 36.0 °F 73% 30.36 in 10.0 mi NNE 18.4 mph - 0.00 in Rain Light Rain
8:53 AM 43.0 °F 35.1 °F 37.9 °F 82% 30.37 in 10.0 mi North 17.3 mph - 0.02 in Rain Light Rain
9:53 AM 43.0 °F 36.4 °F 37.9 °F 82% 30.40 in 10.0 mi North 12.7 mph - 0.00 in   Overcast
10:53 AM 45.0 °F 37.9 °F 37.0 °F 74% 30.40 in 10.0 mi North 16.1 mph - 0.00 in   Overcast
11:53 AM 46.9 °F - 37.9 °F 71% 30.39 in 10.0 mi North 15.0 mph - N/A   Overcast
12:53 PM 46.9 °F - 39.0 °F 74% 30.35 in 10.0 mi North 12.7 mph - 0.00 in Rain Light Rain
1:53 PM 46.9 °F - 39.9 °F 77% 30.33 in 10.0 mi North 12.7 mph - 0.04 in Rain Light Rain
2:53 PM 48.9 °F - 39.0 °F 69% 30.32 in 10.0 mi North 13.8 mph - N/A   Overcast
3:53 PM 48.9 °F - 37.0 °F 64% 30.30 in 10.0 mi North 11.5 mph - N/A   Overcast
4:53 PM 50.0 °F - 37.0 °F 61% 30.30 in 10.0 mi North 10.4 mph - N/A   Overcast
5:53 PM 48.9 °F - 37.0 °F 64% 30.30 in 10.0 mi North 10.4 mph - N/A   Overcast
6:53 PM 46.9 °F - 37.9 °F 71% 30.30 in 10.0 mi NNE 11.5 mph - 0.00 in   Mostly Cloudy
7:53 PM 45.0 °F 40.1 °F 37.9 °F 76% 30.32 in 10.0 mi NNE 9.2 mph - N/A   Scattered Clouds
8:53 PM 42.1 °F 40.2 °F 37.0 °F 82% 30.34 in 10.0 mi North 3.5 mph - N/A   Partly Cloudy
9:53 PM 44.1 °F 38.6 °F 36.0 °F 73% 30.34 in 10.0 mi North 10.4 mph - N/A   Partly Cloudy
10:53 PM 39.9 °F 34.5 °F 35.1 °F 83% 30.36 in 10.0 mi North 8.1 mph - N/A   Scattered Clouds
11:53 PM 37.9 °F 32.1 °F 34.0 °F 86% 30.36 in 10.0 mi North 8.1 mph - N/A   Clear